Regional Weather Roundup
Issued by NWS Albany, NY

Home | Current Version | Previous Version | Graphics & Text | Print | Product List | Glossary Off
Versions: 1 2 3 4 5 6 7 8 9 10 11 12 13 14 15 16 17 18 19 20 21 22 23 24 25 26 27

000
ASUS41 KALY 232310
RWRALY

NEW YORK STATE HOURLY WEATHER ROUNDUP
NATIONAL WEATHER SERVICE ALBANY NY
700 PM EDT TUE MAY 23 2017

NOTE: "FAIR" INDICATES FEW OR NO CLOUDS BELOW 12,000 FEET WITH NO
SIGNIFICANT WEATHER AND/OR NO OBSTRUCTIONS TO VISIBILITY.

NYZ032-033-038>043-046>054-057>066-NYZ062>081-082-084-240000-
EAST


CITY           SKY/WX    TMP DP  RH WIND       PRES   REMARKS
ALBANY         CLOUDY    68  49  50 S7        29.82S
GLENS FALLS    NOT AVBL
POUGHKEEPSIE   CLOUDY    66  47  50 CALM      29.82F
NEWBURGH       PTSUNNY   64  52  63 CALM      29.85F
MONTGOMERY     CLOUDY    66  49  54 CALM      29.83F
WHITE PLAINS   CLOUDY    65  50  58 NW5       29.83S
ISLIP          CLOUDY    64  52  64 S5        29.83F
NEW YORK CITY  CLOUDY    69  47  45 CALM      29.82F
CENTRAL PARK   PTSUNNY   67  47  48 CALM      29.85F
$$

NYZ005>009-017-018-044>046-055-056-240000-
CENTRAL


CITY           SKY/WX    TMP DP  RH WIND       PRES   REMARKS
FULTON         SUNNY     72  49  44 S7        29.79F
SYRACUSE       PTSUNNY   70  49  47 NE7       29.79F
ROME           SUNNY     71  48  43 CALM      29.81F
ELMIRA         CLOUDY    71  46  40 SE10      29.79S
BINGHAMTON     CLOUDY    66  45  46 S6        29.82F
MONTICELLO     CLOUDY    63  48  59 CALM      29.86F
$$

NYZ026>034-041>043-087-240000-
NORTH


CITY           SKY/WX    TMP DP  RH WIND       PRES   REMARKS
WATERTOWN      CLOUDY    67  51  56 W3        29.80S
FORT DRUM      NOT AVBL
OGDENSBURG     FAIR      68  49  51 SW8       29.79S
MASSENA        CLOUDY    67  49  52 SW9       29.79F
SARANAC LAKE   CLOUDY    64  47  53 W6        29.82R
PLATTSBURGH    CLOUDY    64  52  64 CALM      29.79S
$$

NYZ001>004-010>016-019>021-085-240000-
WEST


CITY           SKY/WX    TMP DP  RH WIND       PRES   REMARKS
NIAGARA FALLS  SUNNY     75  45  34 N3        29.76F
BUFFALO        PTSUNNY   73  47  39 NE6       29.76F
DUNKIRK        CLOUDY    68  44  42 NE7       29.76F
JAMESTOWN      CLOUDY    70  45  40 SE6       29.77F
WELLSVILLE     CLOUDY    68  43  40 SE6       29.81F
ROCHESTER      PTSUNNY   69  50  50 NE14      29.79S
PENN YAN       CLOUDY    71  46  40 E6        29.80S
$$

             KEY
       WCI = WIND CHILL INDEX
       VSB = VISIBILITY
       HX  = HEAT INDEX
$$




USA.gov is the U.S. government's official web portal to all federal, state and local government web resources and services.